Multibeam Report for EX1205L1


Ship Name: Okeanos Explorer
Chief Scientist: Lobecker, Elizabeth
NOAA/OAR/OER
Source Organization: National Oceanic and Atmospheric Administration (NOAA)
Start Date: 2012-07-05
End Date: 2012-07-24


View ISO Metadata

Visit the full NCEI Bathymetry Viewer


Multibeam Bathymetry

Cruise Details

Project: Exploration, Blake Plateau
Instrument: Kongsberg EM302

Data Quality

Number of Files: 539
Number of Records: 906510
BATHYMETRY DATA Quantity Percentage
Number of Beams 169941024 100%
Number of Good Beams 167413229 98.51%
Number of Zero Beams 0 0%
Number of Flagged Beams 2527795 1.49%

Navigation Totals

Total Time: 212.9316 hours
Total Track Length: 3175.4239 km
Average Speed: 14.913 km/hr (8.0524 knots)

Cruise Bounds

Northern Extent: 40.88278
Southern Extent: 32.260204
Western Extent: -77.16782
Eastern Extent: -71.53676

Limits

Minimum Sonar Depth 2.8591 Maximum Sonar Depth 7.4694
Minimum Altitude 11.5071 Maximum Altitude 5698.2349
Minimum Depth 11.813 Maximum Depth 6242.1445

File Information

Full Resolution Bathymetry as collected (raw): 238

Files File Size Description
0000_20120705_225323_EX1205L1_MB.all.mb58.gz 69.97MB Kongsberg multibeam vendor format
0001_20120705_231029_EX1205L1_MB.all.mb58.gz 378.88MB Kongsberg multibeam vendor format
0002_20120706_005155_EX1205L1_MB.all.mb58.gz 427.25MB Kongsberg multibeam vendor format
0003_20120706_025155_EX1205L1_MB.all.mb58.gz 390.29MB Kongsberg multibeam vendor format
0004_20120706_045155_EX1205L1_MB.all.mb58.gz 311.31MB Kongsberg multibeam vendor format
0005_20120706_065156_EX1205L1_MB.all.mb58.gz 205.33MB Kongsberg multibeam vendor format
0006_20120706_085156_EX1205L1_MB.all.mb58.gz 103.76MB Kongsberg multibeam vendor format
0007_20120706_105200_EX1205L1_MB.all.mb58.gz 38.07MB Kongsberg multibeam vendor format
0008_20120707_000349_EX1205L1_MB.all.mb58.gz 103.86MB Kongsberg multibeam vendor format
0009_20120707_020348_EX1205L1_MB.all.mb58.gz 103.19MB Kongsberg multibeam vendor format
0010_20120707_040347_EX1205L1_MB.all.mb58.gz 103.47MB Kongsberg multibeam vendor format
0011_20120707_060348_EX1205L1_MB.all.mb58.gz 101.94MB Kongsberg multibeam vendor format
0012_20120707_080343_EX1205L1_MB.all.mb58.gz 92.14MB Kongsberg multibeam vendor format
0013_20120707_100345_EX1205L1_MB.all.mb58.gz 89.23MB Kongsberg multibeam vendor format
0014_20120707_120347_EX1205L1_MB.all.mb58.gz 88.80MB Kongsberg multibeam vendor format
0015_20120707_140346_EX1205L1_MB.all.mb58.gz 88.76MB Kongsberg multibeam vendor format
0016_20120707_160351_EX1205L1_MB.all.mb58.gz 88.92MB Kongsberg multibeam vendor format
0017_20120707_180350_EX1205L1_MB.all.mb58.gz 89.44MB Kongsberg multibeam vendor format
0018_20120707_200346_EX1205L1_MB.all.mb58.gz 89.09MB Kongsberg multibeam vendor format
0019_20120707_220349_EX1205L1_MB.all.mb58.gz 86.97MB Kongsberg multibeam vendor format
0020_20120708_000007_EX1205L1_MB.all.mb58.gz 89.60MB Kongsberg multibeam vendor format
0021_20120708_020003_EX1205L1_MB.all.mb58.gz 89.33MB Kongsberg multibeam vendor format
0022_20120708_040007_EX1205L1_MB.all.mb58.gz 88.89MB Kongsberg multibeam vendor format
0023_20120708_060002_EX1205L1_MB.all.mb58.gz 88.71MB Kongsberg multibeam vendor format
0024_20120708_080002_EX1205L1_MB.all.mb58.gz 88.63MB Kongsberg multibeam vendor format
0025_20120708_100001_EX1205L1_MB.all.mb58.gz 38.68MB Kongsberg multibeam vendor format
0026_20120708_105234_EX1205L1_MB.all.mb58.gz 6.32MB Kongsberg multibeam vendor format
0027_20120708_223431_EX1205L1_MB.all.mb58.gz 18.07MB Kongsberg multibeam vendor format
0028_20120708_225908_EX1205L1_MB.all.mb58.gz 45.88MB Kongsberg multibeam vendor format
0029_20120709_000123_EX1205L1_MB.all.mb58.gz 88.67MB Kongsberg multibeam vendor format
0030_20120709_020127_EX1205L1_MB.all.mb58.gz 36.49MB Kongsberg multibeam vendor format
0031_20120709_025059_EX1205L1_MB.all.mb58.gz 87.85MB Kongsberg multibeam vendor format
0032_20120709_045101_EX1205L1_MB.all.mb58.gz 88.27MB Kongsberg multibeam vendor format
0033_20120709_065058_EX1205L1_MB.all.mb58.gz 56.90MB Kongsberg multibeam vendor format
0034_20120709_080808_EX1205L1_MB.all.mb58.gz 88.77MB Kongsberg multibeam vendor format
0035_20120709_100804_EX1205L1_MB.all.mb58.gz 47.95MB Kongsberg multibeam vendor format
0036_20120710_000006_EX1205L1_MB.all.mb58.gz 7.14MB Kongsberg multibeam vendor format
0037_20120710_000942_EX1205L1_MB.all.mb58.gz 61.55MB Kongsberg multibeam vendor format
0038_20120710_013342_EX1205L1_MB.all.mb58.gz 14.24MB Kongsberg multibeam vendor format
0039_20120710_015305_EX1205L1_MB.all.mb58.gz 50.51MB Kongsberg multibeam vendor format
0040_20120710_030140_EX1205L1_MB.all.mb58.gz 3.45MB Kongsberg multibeam vendor format
0041_20120710_030619_EX1205L1_MB.all.mb58.gz 25.95MB Kongsberg multibeam vendor format
0042_20120710_034127_EX1205L1_MB.all.mb58.gz 2.76MB Kongsberg multibeam vendor format
0043_20120710_034511_EX1205L1_MB.all.mb58.gz 88.58MB Kongsberg multibeam vendor format
0044_20120710_054513_EX1205L1_MB.all.mb58.gz 88.11MB Kongsberg multibeam vendor format
0045_20120710_074516_EX1205L1_MB.all.mb58.gz 87.86MB Kongsberg multibeam vendor format
0046_20120710_094516_EX1205L1_MB.all.mb58.gz 70.71MB Kongsberg multibeam vendor format
0048_20120710_211001_EX1205L1_MB.all.mb58.gz 5.67MB Kongsberg multibeam vendor format
0049_20120710_211747_EX1205L1_MB.all.mb58.gz 6.28MB Kongsberg multibeam vendor format
0050_20120710_212620_EX1205L1_MB.all.mb58.gz 87.36MB Kongsberg multibeam vendor format
0051_20120710_232617_EX1205L1_MB.all.mb58.gz 0.57MB Kongsberg multibeam vendor format
0052_20120710_232704_EX1205L1_MB.all.mb58.gz 24.04MB Kongsberg multibeam vendor format
0053_20120711_001126_EX1205L1_MB.all.mb58.gz 87.94MB Kongsberg multibeam vendor format
0054_20120711_021125_EX1205L1_MB.all.mb58.gz 87.70MB Kongsberg multibeam vendor format
0055_20120711_041126_EX1205L1_MB.all.mb58.gz 86.93MB Kongsberg multibeam vendor format
0056_20120711_061125_EX1205L1_MB.all.mb58.gz 87.27MB Kongsberg multibeam vendor format
0057_20120711_081132_EX1205L1_MB.all.mb58.gz 87.50MB Kongsberg multibeam vendor format
0058_20120711_101125_EX1205L1_MB.all.mb58.gz 88.68MB Kongsberg multibeam vendor format
0059_20120711_121131_EX1205L1_MB.all.mb58.gz 94.51MB Kongsberg multibeam vendor format
0060_20120711_141125_EX1205L1_MB.all.mb58.gz 61.85MB Kongsberg multibeam vendor format
0061_20120711_152011_EX1205L1_MB.all.mb58.gz 32.02MB Kongsberg multibeam vendor format
0062_20120711_155530_EX1205L1_MB.all.mb58.gz 9.63MB Kongsberg multibeam vendor format
0063_20120711_160555_EX1205L1_MB.all.mb58.gz 34.32MB Kongsberg multibeam vendor format
0064_20120711_164342_EX1205L1_MB.all.mb58.gz 7.61MB Kongsberg multibeam vendor format
0065_20120711_165200_EX1205L1_MB.all.mb58.gz 6.37MB Kongsberg multibeam vendor format
0066_20120711_165902_EX1205L1_MB.all.mb58.gz 27.60MB Kongsberg multibeam vendor format
0068_20120712_113420_EX1205L1_MB.all.mb58.gz 32.05MB Kongsberg multibeam vendor format
0069_20120712_120922_EX1205L1_MB.all.mb58.gz 7.75MB Kongsberg multibeam vendor format
0070_20120712_121749_EX1205L1_MB.all.mb58.gz 16.48MB Kongsberg multibeam vendor format
0071_20120712_123556_EX1205L1_MB.all.mb58.gz 81.77MB Kongsberg multibeam vendor format
0072_20120712_140530_EX1205L1_MB.all.mb58.gz 5.16MB Kongsberg multibeam vendor format
0073_20120712_141104_EX1205L1_MB.all.mb58.gz 38.76MB Kongsberg multibeam vendor format
0074_20120712_145349_EX1205L1_MB.all.mb58.gz 8.29MB Kongsberg multibeam vendor format
0075_20120712_150242_EX1205L1_MB.all.mb58.gz 33.63MB Kongsberg multibeam vendor format
0076_20120712_153937_EX1205L1_MB.all.mb58.gz 7.72MB Kongsberg multibeam vendor format
0077_20120712_154803_EX1205L1_MB.all.mb58.gz 34.94MB Kongsberg multibeam vendor format
0078_20120712_162629_EX1205L1_MB.all.mb58.gz 6.34MB Kongsberg multibeam vendor format
0079_20120712_163316_EX1205L1_MB.all.mb58.gz 32.39MB Kongsberg multibeam vendor format
0080_20120712_170845_EX1205L1_MB.all.mb58.gz 27.37MB Kongsberg multibeam vendor format
0081_20120712_173828_EX1205L1_MB.all.mb58.gz 35.70MB Kongsberg multibeam vendor format
0082_20120712_181740_EX1205L1_MB.all.mb58.gz 11.21MB Kongsberg multibeam vendor format
0083_20120712_182941_EX1205L1_MB.all.mb58.gz 35.24MB Kongsberg multibeam vendor format
0084_20120712_190808_EX1205L1_MB.all.mb58.gz 11.98MB Kongsberg multibeam vendor format
0085_20120712_192113_EX1205L1_MB.all.mb58.gz 34.23MB Kongsberg multibeam vendor format
0086_20120712_195835_EX1205L1_MB.all.mb58.gz 19.78MB Kongsberg multibeam vendor format
0087_20120712_201941_EX1205L1_MB.all.mb58.gz 33.04MB Kongsberg multibeam vendor format
0088_20120712_205544_EX1205L1_MB.all.mb58.gz 48.53MB Kongsberg multibeam vendor format
0089_20120713_115340_EX1205L1_MB.all.mb58.gz 20.85MB Kongsberg multibeam vendor format
0090_20120713_121627_EX1205L1_MB.all.mb58.gz 8.38MB Kongsberg multibeam vendor format
0091_20120713_122526_EX1205L1_MB.all.mb58.gz 39.03MB Kongsberg multibeam vendor format
0092_20120713_130752_EX1205L1_MB.all.mb58.gz 36.29MB Kongsberg multibeam vendor format
0093_20120713_134719_EX1205L1_MB.all.mb58.gz 35.31MB Kongsberg multibeam vendor format
0094_20120713_142603_EX1205L1_MB.all.mb58.gz 13.70MB Kongsberg multibeam vendor format
0095_20120713_144046_EX1205L1_MB.all.mb58.gz 7.41MB Kongsberg multibeam vendor format
0096_20120713_144849_EX1205L1_MB.all.mb58.gz 27.30MB Kongsberg multibeam vendor format
0097_20120713_151843_EX1205L1_MB.all.mb58.gz 8.90MB Kongsberg multibeam vendor format
0098_20120713_152822_EX1205L1_MB.all.mb58.gz 32.83MB Kongsberg multibeam vendor format
0099_20120713_160423_EX1205L1_MB.all.mb58.gz 14.17MB Kongsberg multibeam vendor format
0100_20120713_161942_EX1205L1_MB.all.mb58.gz 35.94MB Kongsberg multibeam vendor format
0101_20120713_165903_EX1205L1_MB.all.mb58.gz 10.49MB Kongsberg multibeam vendor format
0102_20120713_171026_EX1205L1_MB.all.mb58.gz 35.70MB Kongsberg multibeam vendor format
0103_20120713_174937_EX1205L1_MB.all.mb58.gz 12.65MB Kongsberg multibeam vendor format
0104_20120713_180317_EX1205L1_MB.all.mb58.gz 34.89MB Kongsberg multibeam vendor format
0105_20120713_184131_EX1205L1_MB.all.mb58.gz 8.18MB Kongsberg multibeam vendor format
0106_20120713_185025_EX1205L1_MB.all.mb58.gz 34.47MB Kongsberg multibeam vendor format
0107_20120713_192820_EX1205L1_MB.all.mb58.gz 10.51MB Kongsberg multibeam vendor format
0108_20120713_193938_EX1205L1_MB.all.mb58.gz 35.41MB Kongsberg multibeam vendor format
0109_20120713_201856_EX1205L1_MB.all.mb58.gz 0.68MB Kongsberg multibeam vendor format
0110_20120713_201943_EX1205L1_MB.all.mb58.gz 8.02MB Kongsberg multibeam vendor format
0111_20120713_202824_EX1205L1_MB.all.mb58.gz 34.45MB Kongsberg multibeam vendor format
0112_20120713_210607_EX1205L1_MB.all.mb58.gz 31.12MB Kongsberg multibeam vendor format
0113_20120714_131507_EX1205L1_MB.all.mb58.gz 34.16MB Kongsberg multibeam vendor format
0114_20120714_135224_EX1205L1_MB.all.mb58.gz 9.59MB Kongsberg multibeam vendor format
0115_20120714_140243_EX1205L1_MB.all.mb58.gz 34.52MB Kongsberg multibeam vendor format
0116_20120714_144027_EX1205L1_MB.all.mb58.gz 11.45MB Kongsberg multibeam vendor format
0117_20120714_145241_EX1205L1_MB.all.mb58.gz 36.33MB Kongsberg multibeam vendor format
0118_20120714_153222_EX1205L1_MB.all.mb58.gz 10.94MB Kongsberg multibeam vendor format
0119_20120714_154414_EX1205L1_MB.all.mb58.gz 34.16MB Kongsberg multibeam vendor format
0120_20120714_162135_EX1205L1_MB.all.mb58.gz 12.66MB Kongsberg multibeam vendor format
0121_20120714_163512_EX1205L1_MB.all.mb58.gz 36.01MB Kongsberg multibeam vendor format
0122_20120714_171429_EX1205L1_MB.all.mb58.gz 12.03MB Kongsberg multibeam vendor format
0123_20120714_172731_EX1205L1_MB.all.mb58.gz 34.88MB Kongsberg multibeam vendor format
0124_20120714_180541_EX1205L1_MB.all.mb58.gz 12.38MB Kongsberg multibeam vendor format
0125_20120714_181858_EX1205L1_MB.all.mb58.gz 21.67MB Kongsberg multibeam vendor format
0126_20120714_184234_EX1205L1_MB.all.mb58.gz 12.99MB Kongsberg multibeam vendor format
0127_20120714_185641_EX1205L1_MB.all.mb58.gz 77.21MB Kongsberg multibeam vendor format
0128_20120714_202032_EX1205L1_MB.all.mb58.gz 111.99MB Kongsberg multibeam vendor format
0129_20120714_222035_EX1205L1_MB.all.mb58.gz 19.38MB Kongsberg multibeam vendor format
0131_20120715_134924_EX1205L1_MB.all.mb58.gz 1.21MB Kongsberg multibeam vendor format
0134_20120715_140357_EX1205L1_MB.all.mb58.gz 83.95MB Kongsberg multibeam vendor format
0135_20120715_153440_EX1205L1_MB.all.mb58.gz 97.37MB Kongsberg multibeam vendor format
0136_20120715_171933_EX1205L1_MB.all.mb58.gz 10.92MB Kongsberg multibeam vendor format
0137_20120715_173132_EX1205L1_MB.all.mb58.gz 64.48MB Kongsberg multibeam vendor format
0138_20120715_184303_EX1205L1_MB.all.mb58.gz 13.94MB Kongsberg multibeam vendor format
0139_20120715_185838_EX1205L1_MB.all.mb58.gz 57.11MB Kongsberg multibeam vendor format
0140_20120715_200208_EX1205L1_MB.all.mb58.gz 14.25MB Kongsberg multibeam vendor format
0141_20120715_201745_EX1205L1_MB.all.mb58.gz 32.70MB Kongsberg multibeam vendor format
0142_20120715_205413_EX1205L1_MB.all.mb58.gz 9.08MB Kongsberg multibeam vendor format
0143_20120715_210412_EX1205L1_MB.all.mb58.gz 17.71MB Kongsberg multibeam vendor format
0144_20120715_212408_EX1205L1_MB.all.mb58.gz 19.81MB Kongsberg multibeam vendor format
0145_20120716_124446_EX1205L1_MB.all.mb58.gz 24.04MB Kongsberg multibeam vendor format
0146_20120716_131210_EX1205L1_MB.all.mb58.gz 32.10MB Kongsberg multibeam vendor format
0147_20120716_134906_EX1205L1_MB.all.mb58.gz 10.88MB Kongsberg multibeam vendor format
0148_20120716_140128_EX1205L1_MB.all.mb58.gz 35.05MB Kongsberg multibeam vendor format
0149_20120716_144139_EX1205L1_MB.all.mb58.gz 1.25MB Kongsberg multibeam vendor format
0150_20120716_144307_EX1205L1_MB.all.mb58.gz 21.65MB Kongsberg multibeam vendor format
0151_20120716_150809_EX1205L1_MB.all.mb58.gz 14.90MB Kongsberg multibeam vendor format
0152_20120716_152507_EX1205L1_MB.all.mb58.gz 33.83MB Kongsberg multibeam vendor format
0153_20120716_160348_EX1205L1_MB.all.mb58.gz 10.25MB Kongsberg multibeam vendor format
0154_20120716_161530_EX1205L1_MB.all.mb58.gz 87.07MB Kongsberg multibeam vendor format
0155_20120716_175601_EX1205L1_MB.all.mb58.gz 66.39MB Kongsberg multibeam vendor format
0156_20120716_191138_EX1205L1_MB.all.mb58.gz 38.36MB Kongsberg multibeam vendor format
0157_20120716_195415_EX1205L1_MB.all.mb58.gz 64.05MB Kongsberg multibeam vendor format
0158_20120716_210522_EX1205L1_MB.all.mb58.gz 45.73MB Kongsberg multibeam vendor format
0159_20120717_125741_EX1205L1_MB.all.mb58.gz 31.07MB Kongsberg multibeam vendor format
0160_20120717_133212_EX1205L1_MB.all.mb58.gz 29.26MB Kongsberg multibeam vendor format
0161_20120717_140454_EX1205L1_MB.all.mb58.gz 12.72MB Kongsberg multibeam vendor format
0162_20120717_141857_EX1205L1_MB.all.mb58.gz 56.43MB Kongsberg multibeam vendor format
0163_20120717_152143_EX1205L1_MB.all.mb58.gz 22.28MB Kongsberg multibeam vendor format
0164_20120717_154644_EX1205L1_MB.all.mb58.gz 54.90MB Kongsberg multibeam vendor format
0165_20120717_164827_EX1205L1_MB.all.mb58.gz 25.18MB Kongsberg multibeam vendor format
0166_20120717_171630_EX1205L1_MB.all.mb58.gz 55.11MB Kongsberg multibeam vendor format
0167_20120717_181801_EX1205L1_MB.all.mb58.gz 23.61MB Kongsberg multibeam vendor format
0168_20120717_184431_EX1205L1_MB.all.mb58.gz 54.77MB Kongsberg multibeam vendor format
0169_20120717_194605_EX1205L1_MB.all.mb58.gz 20.75MB Kongsberg multibeam vendor format
0170_20120717_200913_EX1205L1_MB.all.mb58.gz 50.67MB Kongsberg multibeam vendor format
0171_20120717_210607_EX1205L1_MB.all.mb58.gz 32.40MB Kongsberg multibeam vendor format
0172_20120717_214224_EX1205L1_MB.all.mb58.gz 18.39MB Kongsberg multibeam vendor format
0173_20120718_134356_EX1205L1_MB.all.mb58.gz 18.61MB Kongsberg multibeam vendor format
0174_20120718_140429_EX1205L1_MB.all.mb58.gz 110.88MB Kongsberg multibeam vendor format
0175_20120718_160432_EX1205L1_MB.all.mb58.gz 70.65MB Kongsberg multibeam vendor format
0176_20120718_171134_EX1205L1_MB.all.mb58.gz 160.05MB Kongsberg multibeam vendor format
0177_20120718_190404_EX1205L1_MB.all.mb58.gz 122.22MB Kongsberg multibeam vendor format
0178_20120718_202710_EX1205L1_MB.all.mb58.gz 129.21MB Kongsberg multibeam vendor format
0179_20120718_222715_EX1205L1_MB.all.mb58.gz 64.60MB Kongsberg multibeam vendor format
0180_20120719_170513_EX1205L1_MB.all.mb58.gz 36.05MB Kongsberg multibeam vendor format
0181_20120719_174557_EX1205L1_MB.all.mb58.gz 49.57MB Kongsberg multibeam vendor format
0182_20120719_184052_EX1205L1_MB.all.mb58.gz 23.10MB Kongsberg multibeam vendor format
0183_20120719_190543_EX1205L1_MB.all.mb58.gz 41.32MB Kongsberg multibeam vendor format
0184_20120719_195141_EX1205L1_MB.all.mb58.gz 129.2KB Kongsberg multibeam vendor format
0185_20120719_195149_EX1205L1_MB.all.mb58.gz 20.21MB Kongsberg multibeam vendor format
0186_20120719_201427_EX1205L1_MB.all.mb58.gz 70.01MB Kongsberg multibeam vendor format
0187_20120719_213209_EX1205L1_MB.all.mb58.gz 118.71MB Kongsberg multibeam vendor format
0188_20120719_233207_EX1205L1_MB.all.mb58.gz 35.64MB Kongsberg multibeam vendor format
0189_20120720_000009_EX1205L1_MB.all.mb58.gz 20.01MB Kongsberg multibeam vendor format
0190_20120720_001350_EX1205L1_MB.all.mb58.gz 179.00MB Kongsberg multibeam vendor format
0191_20120720_021352_EX1205L1_MB.all.mb58.gz 180.67MB Kongsberg multibeam vendor format
0192_20120720_041350_EX1205L1_MB.all.mb58.gz 180.31MB Kongsberg multibeam vendor format
0193_20120720_061352_EX1205L1_MB.all.mb58.gz 46.63MB Kongsberg multibeam vendor format
0194_20120720_064458_EX1205L1_MB.all.mb58.gz 18.10MB Kongsberg multibeam vendor format
0195_20120720_065707_EX1205L1_MB.all.mb58.gz 179.36MB Kongsberg multibeam vendor format
0196_20120720_085709_EX1205L1_MB.all.mb58.gz 179.56MB Kongsberg multibeam vendor format
0197_20120720_105708_EX1205L1_MB.all.mb58.gz 134.58MB Kongsberg multibeam vendor format
0198_20120720_122812_EX1205L1_MB.all.mb58.gz 22.39MB Kongsberg multibeam vendor format
0199_20120720_124723_EX1205L1_MB.all.mb58.gz 32.70MB Kongsberg multibeam vendor format
0200_20120720_131235_EX1205L1_MB.all.mb58.gz 8.67MB Kongsberg multibeam vendor format
0201_20120720_131852_EX1205L1_MB.all.mb58.gz 127.73MB Kongsberg multibeam vendor format
0202_20120720_151855_EX1205L1_MB.all.mb58.gz 3.66MB Kongsberg multibeam vendor format
0203_20120720_152242_EX1205L1_MB.all.mb58.gz 47.23MB Kongsberg multibeam vendor format
0204_20120720_161808_EX1205L1_MB.all.mb58.gz 16.53MB Kongsberg multibeam vendor format
0205_20120720_163835_EX1205L1_MB.all.mb58.gz 10.78MB Kongsberg multibeam vendor format
0206_20120720_165135_EX1205L1_MB.all.mb58.gz 23.55MB Kongsberg multibeam vendor format
0207_20120720_172101_EX1205L1_MB.all.mb58.gz 10.84MB Kongsberg multibeam vendor format
0208_20120721_161413_EX1205L1_MB.all.mb58.gz 62.07MB Kongsberg multibeam vendor format
0209_20120721_172052_EX1205L1_MB.all.mb58.gz 6.17MB Kongsberg multibeam vendor format
0210_20120721_172738_EX1205L1_MB.all.mb58.gz 64.79MB Kongsberg multibeam vendor format
0211_20120721_183941_EX1205L1_MB.all.mb58.gz 5.79MB Kongsberg multibeam vendor format
0212_20120721_184606_EX1205L1_MB.all.mb58.gz 47.30MB Kongsberg multibeam vendor format
0213_20120721_193751_EX1205L1_MB.all.mb58.gz 37.62MB Kongsberg multibeam vendor format
0214_20120721_201822_EX1205L1_MB.all.mb58.gz 2.22MB Kongsberg multibeam vendor format
0215_20120721_202044_EX1205L1_MB.all.mb58.gz 21.22MB Kongsberg multibeam vendor format
0216_20120721_204335_EX1205L1_MB.all.mb58.gz 34.32MB Kongsberg multibeam vendor format
0217_20120721_212057_EX1205L1_MB.all.mb58.gz 19.58MB Kongsberg multibeam vendor format
0218_20120721_214242_EX1205L1_MB.all.mb58.gz 4.91MB Kongsberg multibeam vendor format
0219_20120721_214810_EX1205L1_MB.all.mb58.gz 67.62MB Kongsberg multibeam vendor format
0220_20120721_230507_EX1205L1_MB.all.mb58.gz 6.90MB Kongsberg multibeam vendor format
0221_20120721_231256_EX1205L1_MB.all.mb58.gz 40.19MB Kongsberg multibeam vendor format
0222_20120722_125954_EX1205L1_MB.all.mb58.gz 50.93MB Kongsberg multibeam vendor format
0223_20120722_135848_EX1205L1_MB.all.mb58.gz 91.21MB Kongsberg multibeam vendor format
0224_20120722_154410_EX1205L1_MB.all.mb58.gz 44.70MB Kongsberg multibeam vendor format
0225_20120722_193905_EX1205L1_MB.all.mb58.gz 19.62MB Kongsberg multibeam vendor format
0226_20120722_200452_EX1205L1_MB.all.mb58.gz 29.08MB Kongsberg multibeam vendor format
0227_20120722_204327_EX1205L1_MB.all.mb58.gz 16.75MB Kongsberg multibeam vendor format
0228_20120722_210550_EX1205L1_MB.all.mb58.gz 98.22MB Kongsberg multibeam vendor format
0229_20120722_230553_EX1205L1_MB.all.mb58.gz 5.24MB Kongsberg multibeam vendor format
0230_20120722_231153_EX1205L1_MB.all.mb58.gz 10.58MB Kongsberg multibeam vendor format
0231_20120722_232403_EX1205L1_MB.all.mb58.gz 51.58MB Kongsberg multibeam vendor format
0232_20120723_190851_EX1205L1_MB.all.mb58.gz 26.62MB Kongsberg multibeam vendor format
0233_20120723_193942_EX1205L1_MB.all.mb58.gz 112.65MB Kongsberg multibeam vendor format
0234_20120723_213943_EX1205L1_MB.all.mb58.gz 22.22MB Kongsberg multibeam vendor format
0235_20120723_215500_EX1205L1_MB.all.mb58.gz 15.89MB Kongsberg multibeam vendor format
0236_20120723_220544_EX1205L1_MB.all.mb58.gz 169.87MB Kongsberg multibeam vendor format
0237_20120724_000256_EX1205L1_MB.all.mb58.gz 170.94MB Kongsberg multibeam vendor format
0238_20120724_020256_EX1205L1_MB.all.mb58.gz 100.20MB Kongsberg multibeam vendor format
0239_20120724_031336_EX1205L1_MB.all.mb58.gz 226.25MB Kongsberg multibeam vendor format
0240_20120724_051336_EX1205L1_MB.all.mb58.gz 725.94MB Kongsberg multibeam vendor format
0241_20120724_071336_EX1205L1_MB.all.mb58.gz 613.07MB Kongsberg multibeam vendor format
0242_20120724_084818_EX1205L1_MB.all.mb58.gz 958.15MB Kongsberg multibeam vendor format

Full Resolution Bathymetry (processed): 237

Files File Size Description
EX1205L1_EX03192012_2012-187_0000_20120705_225323_EX1205L1_MB.txt.mb162 15.75MB Generic XYZ sounding format
EX1205L1_EX03192012_2012-187_0001_20120705_231029_EX1205L1_MB.txt.mb162 84.06MB Generic XYZ sounding format
EX1205L1_EX03192012_2012-188_0002_20120706_005155_EX1205L1_MB.txt.mb162 94.71MB Generic XYZ sounding format
EX1205L1_EX03192012_2012-188_0003_20120706_025155_EX1205L1_MB.txt.mb162 86.11MB Generic XYZ sounding format
EX1205L1_EX03192012_2012-188_0004_20120706_045155_EX1205L1_MB.txt.mb162 65.30MB Generic XYZ sounding format
EX1205L1_EX03192012_2012-188_0005_20120706_065156_EX1205L1_MB.txt.mb162 34.06MB Generic XYZ sounding format
EX1205L1_EX03192012_2012-188_0006_20120706_085156_EX1205L1_MB.txt.mb162 6.33MB Generic XYZ sounding format
EX1205L1_EX03192012_2012-188_0007_20120706_105200_EX1205L1_MB.txt.mb162 1.70MB Generic XYZ sounding format
EX1205L1_EX03192012_2012-189_0008_20120707_000349_EX1205L1_MB.txt.mb162 7.27MB Generic XYZ sounding format
EX1205L1_EX03192012_2012-189_0009_20120707_020348_EX1205L1_MB.txt.mb162 7.27MB Generic XYZ sounding format
EX1205L1_EX03192012_2012-189_0010_20120707_040347_EX1205L1_MB.txt.mb162 7.41MB Generic XYZ sounding format
EX1205L1_EX03192012_2012-189_0011_20120707_060348_EX1205L1_MB.txt.mb162 6.65MB Generic XYZ sounding format
EX1205L1_EX03192012_2012-189_0012_20120707_080343_EX1205L1_MB.txt.mb162 4.45MB Generic XYZ sounding format
EX1205L1_EX03192012_2012-189_0013_20120707_100345_EX1205L1_MB.txt.mb162 3.60MB Generic XYZ sounding format
EX1205L1_EX03192012_2012-189_0014_20120707_120347_EX1205L1_MB.txt.mb162 3.37MB Generic XYZ sounding format
EX1205L1_EX03192012_2012-189_0015_20120707_140346_EX1205L1_MB.txt.mb162 3.27MB Generic XYZ sounding format
EX1205L1_EX03192012_2012-189_0016_20120707_160351_EX1205L1_MB.txt.mb162 2.95MB Generic XYZ sounding format
EX1205L1_EX03192012_2012-189_0017_20120707_180350_EX1205L1_MB.txt.mb162 3.07MB Generic XYZ sounding format
EX1205L1_EX03192012_2012-189_0018_20120707_200346_EX1205L1_MB.txt.mb162 2.90MB Generic XYZ sounding format
EX1205L1_EX03192012_2012-189_0019_20120707_220349_EX1205L1_MB.txt.mb162 2.98MB Generic XYZ sounding format
EX1205L1_EX03192012_2012-190_0020_20120708_000007_EX1205L1_MB.txt.mb162 3.02MB Generic XYZ sounding format
EX1205L1_EX03192012_2012-190_0021_20120708_020003_EX1205L1_MB.txt.mb162 2.99MB Generic XYZ sounding format
EX1205L1_EX03192012_2012-190_0022_20120708_040007_EX1205L1_MB.txt.mb162 3.18MB Generic XYZ sounding format
EX1205L1_EX03192012_2012-190_0023_20120708_060002_EX1205L1_MB.txt.mb162 3.19MB Generic XYZ sounding format
EX1205L1_EX03192012_2012-190_0024_20120708_080002_EX1205L1_MB.txt.mb162 3.42MB Generic XYZ sounding format
EX1205L1_EX03192012_2012-190_0025_20120708_100001_EX1205L1_MB.txt.mb162 1.49MB Generic XYZ sounding format
EX1205L1_EX03192012_2012-190_0026_20120708_105234_EX1205L1_MB.txt.mb162 205.7KB Generic XYZ sounding format
EX1205L1_EX03192012_2012-190_0027_20120708_223431_EX1205L1_MB.txt.mb162 0.60MB Generic XYZ sounding format
EX1205L1_EX03192012_2012-190_0028_20120708_225908_EX1205L1_MB.txt.mb162 1.73MB Generic XYZ sounding format
EX1205L1_EX03192012_2012-191_0029_20120709_000123_EX1205L1_MB.txt.mb162 3.42MB Generic XYZ sounding format
EX1205L1_EX03192012_2012-191_0030_20120709_020127_EX1205L1_MB.txt.mb162 1.45MB Generic XYZ sounding format
EX1205L1_EX03192012_2012-191_0031_20120709_025059_EX1205L1_MB.txt.mb162 3.46MB Generic XYZ sounding format
EX1205L1_EX03192012_2012-191_0032_20120709_045101_EX1205L1_MB.txt.mb162 3.59MB Generic XYZ sounding format
EX1205L1_EX03192012_2012-191_0033_20120709_065058_EX1205L1_MB.txt.mb162 2.39MB Generic XYZ sounding format
EX1205L1_EX03192012_2012-191_0034_20120709_080808_EX1205L1_MB.txt.mb162 3.58MB Generic XYZ sounding format
EX1205L1_EX03192012_2012-191_0035_20120709_100804_EX1205L1_MB.txt.mb162 2.04MB Generic XYZ sounding format
EX1205L1_EX03192012_2012-192_0036_20120710_000006_EX1205L1_MB.txt.mb162 293.7KB Generic XYZ sounding format
EX1205L1_EX03192012_2012-192_0037_20120710_000942_EX1205L1_MB.txt.mb162 2.50MB Generic XYZ sounding format
EX1205L1_EX03192012_2012-192_0038_20120710_013342_EX1205L1_MB.txt.mb162 0.54MB Generic XYZ sounding format
EX1205L1_EX03192012_2012-192_0039_20120710_015305_EX1205L1_MB.txt.mb162 1.99MB Generic XYZ sounding format
EX1205L1_EX03192012_2012-192_0040_20120710_030140_EX1205L1_MB.txt.mb162 131.4KB Generic XYZ sounding format
EX1205L1_EX03192012_2012-192_0041_20120710_030619_EX1205L1_MB.txt.mb162 1.01MB Generic XYZ sounding format
EX1205L1_EX03192012_2012-192_0042_20120710_034127_EX1205L1_MB.txt.mb162 105.9KB Generic XYZ sounding format
EX1205L1_EX03192012_2012-192_0043_20120710_034511_EX1205L1_MB.txt.mb162 3.42MB Generic XYZ sounding format
EX1205L1_EX03192012_2012-192_0044_20120710_054513_EX1205L1_MB.txt.mb162 3.43MB Generic XYZ sounding format
EX1205L1_EX03192012_2012-192_0045_20120710_074516_EX1205L1_MB.txt.mb162 3.53MB Generic XYZ sounding format
EX1205L1_EX03192012_2012-192_0046_20120710_094516_EX1205L1_MB.txt.mb162 2.87MB Generic XYZ sounding format
EX1205L1_EX03192012_2012-192_0048_20120710_211001_EX1205L1_MB.txt.mb162 222.3KB Generic XYZ sounding format
EX1205L1_EX03192012_2012-192_0049_20120710_211747_EX1205L1_MB.txt.mb162 251.4KB Generic XYZ sounding format
EX1205L1_EX03192012_2012-192_0050_20120710_212620_EX1205L1_MB.txt.mb162 3.48MB Generic XYZ sounding format
EX1205L1_EX03192012_2012-192_0051_20120710_232617_EX1205L1_MB.txt.mb162 14.3KB Generic XYZ sounding format
EX1205L1_EX03192012_2012-192_0052_20120710_232704_EX1205L1_MB.txt.mb162 0.93MB Generic XYZ sounding format
EX1205L1_EX03192012_2012-193_0053_20120711_001126_EX1205L1_MB.txt.mb162 3.39MB Generic XYZ sounding format
EX1205L1_EX03192012_2012-193_0054_20120711_021125_EX1205L1_MB.txt.mb162 3.27MB Generic XYZ sounding format
EX1205L1_EX03192012_2012-193_0055_20120711_041126_EX1205L1_MB.txt.mb162 2.95MB Generic XYZ sounding format
EX1205L1_EX03192012_2012-193_0056_20120711_061125_EX1205L1_MB.txt.mb162 3.06MB Generic XYZ sounding format
EX1205L1_EX03192012_2012-193_0057_20120711_081132_EX1205L1_MB.txt.mb162 3.18MB Generic XYZ sounding format
EX1205L1_EX03192012_2012-193_0058_20120711_101125_EX1205L1_MB.txt.mb162 3.41MB Generic XYZ sounding format
EX1205L1_EX03192012_2012-193_0059_20120711_121131_EX1205L1_MB.txt.mb162 4.97MB Generic XYZ sounding format
EX1205L1_EX03192012_2012-193_0060_20120711_141125_EX1205L1_MB.txt.mb162 4.64MB Generic XYZ sounding format
EX1205L1_EX03192012_2012-193_0061_20120711_152011_EX1205L1_MB.txt.mb162 2.42MB Generic XYZ sounding format
EX1205L1_EX03192012_2012-193_0062_20120711_155530_EX1205L1_MB.txt.mb162 0.74MB Generic XYZ sounding format
EX1205L1_EX03192012_2012-193_0063_20120711_160555_EX1205L1_MB.txt.mb162 2.60MB Generic XYZ sounding format
EX1205L1_EX03192012_2012-193_0064_20120711_164342_EX1205L1_MB.txt.mb162 0.57MB Generic XYZ sounding format
EX1205L1_EX03192012_2012-193_0065_20120711_165200_EX1205L1_MB.txt.mb162 492.4KB Generic XYZ sounding format
EX1205L1_EX03192012_2012-193_0066_20120711_165902_EX1205L1_MB.txt.mb162 2.02MB Generic XYZ sounding format
EX1205L1_EX03192012_2012-194_0068_20120712_113420_EX1205L1_MB.txt.mb162 2.45MB Generic XYZ sounding format
EX1205L1_EX03192012_2012-194_0069_20120712_120922_EX1205L1_MB.txt.mb162 0.61MB Generic XYZ sounding format
EX1205L1_EX03192012_2012-194_0070_20120712_121749_EX1205L1_MB.txt.mb162 1.31MB Generic XYZ sounding format
EX1205L1_EX03192012_2012-194_0071_20120712_123556_EX1205L1_MB.txt.mb162 5.66MB Generic XYZ sounding format
EX1205L1_EX03192012_2012-194_0072_20120712_140530_EX1205L1_MB.txt.mb162 401.9KB Generic XYZ sounding format
EX1205L1_EX03192012_2012-194_0073_20120712_141104_EX1205L1_MB.txt.mb162 2.94MB Generic XYZ sounding format
EX1205L1_EX03192012_2012-194_0074_20120712_145349_EX1205L1_MB.txt.mb162 0.65MB Generic XYZ sounding format
EX1205L1_EX03192012_2012-194_0075_20120712_150242_EX1205L1_MB.txt.mb162 2.57MB Generic XYZ sounding format
EX1205L1_EX03192012_2012-194_0076_20120712_153937_EX1205L1_MB.txt.mb162 0.57MB Generic XYZ sounding format
EX1205L1_EX03192012_2012-194_0077_20120712_154803_EX1205L1_MB.txt.mb162 2.63MB Generic XYZ sounding format
EX1205L1_EX03192012_2012-194_0078_20120712_162629_EX1205L1_MB.txt.mb162 508.2KB Generic XYZ sounding format
EX1205L1_EX03192012_2012-194_0079_20120712_163316_EX1205L1_MB.txt.mb162 2.46MB Generic XYZ sounding format
EX1205L1_EX03192012_2012-194_0080_20120712_170845_EX1205L1_MB.txt.mb162 2.02MB Generic XYZ sounding format
EX1205L1_EX03192012_2012-194_0081_20120712_173828_EX1205L1_MB.txt.mb162 2.67MB Generic XYZ sounding format
EX1205L1_EX03192012_2012-194_0082_20120712_181740_EX1205L1_MB.txt.mb162 0.89MB Generic XYZ sounding format
EX1205L1_EX03192012_2012-194_0083_20120712_182941_EX1205L1_MB.txt.mb162 2.70MB Generic XYZ sounding format
EX1205L1_EX03192012_2012-194_0084_20120712_190808_EX1205L1_MB.txt.mb162 0.87MB Generic XYZ sounding format
EX1205L1_EX03192012_2012-194_0085_20120712_192113_EX1205L1_MB.txt.mb162 2.55MB Generic XYZ sounding format
EX1205L1_EX03192012_2012-194_0086_20120712_195835_EX1205L1_MB.txt.mb162 1.53MB Generic XYZ sounding format
EX1205L1_EX03192012_2012-194_0087_20120712_201941_EX1205L1_MB.txt.mb162 2.47MB Generic XYZ sounding format
EX1205L1_EX03192012_2012-194_0088_20120712_205544_EX1205L1_MB.txt.mb162 3.14MB Generic XYZ sounding format
EX1205L1_EX03192012_2012-195_0089_20120713_115340_EX1205L1_MB.txt.mb162 1.58MB Generic XYZ sounding format
EX1205L1_EX03192012_2012-195_0090_20120713_121627_EX1205L1_MB.txt.mb162 391.2KB Generic XYZ sounding format
EX1205L1_EX03192012_2012-195_0091_20120713_122526_EX1205L1_MB.txt.mb162 2.91MB Generic XYZ sounding format
EX1205L1_EX03192012_2012-195_0092_20120713_130752_EX1205L1_MB.txt.mb162 2.56MB Generic XYZ sounding format
EX1205L1_EX03192012_2012-195_0093_20120713_134719_EX1205L1_MB.txt.mb162 2.63MB Generic XYZ sounding format
EX1205L1_EX03192012_2012-195_0094_20120713_142603_EX1205L1_MB.txt.mb162 1.05MB Generic XYZ sounding format
EX1205L1_EX03192012_2012-195_0095_20120713_144046_EX1205L1_MB.txt.mb162 0.57MB Generic XYZ sounding format
EX1205L1_EX03192012_2012-195_0096_20120713_144849_EX1205L1_MB.txt.mb162 2.02MB Generic XYZ sounding format
EX1205L1_EX03192012_2012-195_0097_20120713_151843_EX1205L1_MB.txt.mb162 0.66MB Generic XYZ sounding format
EX1205L1_EX03192012_2012-195_0098_20120713_152822_EX1205L1_MB.txt.mb162 2.45MB Generic XYZ sounding format
EX1205L1_EX03192012_2012-195_0099_20120713_160423_EX1205L1_MB.txt.mb162 1.10MB Generic XYZ sounding format
EX1205L1_EX03192012_2012-195_0100_20120713_161942_EX1205L1_MB.txt.mb162 2.70MB Generic XYZ sounding format
EX1205L1_EX03192012_2012-195_0101_20120713_165903_EX1205L1_MB.txt.mb162 0.79MB Generic XYZ sounding format
EX1205L1_EX03192012_2012-195_0102_20120713_171026_EX1205L1_MB.txt.mb162 2.68MB Generic XYZ sounding format
EX1205L1_EX03192012_2012-195_0103_20120713_174937_EX1205L1_MB.txt.mb162 0.99MB Generic XYZ sounding format
EX1205L1_EX03192012_2012-195_0104_20120713_180317_EX1205L1_MB.txt.mb162 2.63MB Generic XYZ sounding format
EX1205L1_EX03192012_2012-195_0105_20120713_184131_EX1205L1_MB.txt.mb162 0.61MB Generic XYZ sounding format
EX1205L1_EX03192012_2012-195_0106_20120713_185025_EX1205L1_MB.txt.mb162 2.61MB Generic XYZ sounding format
EX1205L1_EX03192012_2012-195_0107_20120713_192820_EX1205L1_MB.txt.mb162 0.82MB Generic XYZ sounding format
EX1205L1_EX03192012_2012-195_0108_20120713_193938_EX1205L1_MB.txt.mb162 2.69MB Generic XYZ sounding format
EX1205L1_EX03192012_2012-195_0109_20120713_201856_EX1205L1_MB.txt.mb162 42.3KB Generic XYZ sounding format
EX1205L1_EX03192012_2012-195_0110_20120713_201943_EX1205L1_MB.txt.mb162 0.61MB Generic XYZ sounding format
EX1205L1_EX03192012_2012-195_0111_20120713_202824_EX1205L1_MB.txt.mb162 2.64MB Generic XYZ sounding format
EX1205L1_EX03192012_2012-195_0112_20120713_210607_EX1205L1_MB.txt.mb162 2.38MB Generic XYZ sounding format
EX1205L1_EX03192012_2012-196_0113_20120714_131507_EX1205L1_MB.txt.mb162 2.54MB Generic XYZ sounding format
EX1205L1_EX03192012_2012-196_0114_20120714_135224_EX1205L1_MB.txt.mb162 0.71MB Generic XYZ sounding format
EX1205L1_EX03192012_2012-196_0115_20120714_140243_EX1205L1_MB.txt.mb162 2.62MB Generic XYZ sounding format
EX1205L1_EX03192012_2012-196_0116_20120714_144027_EX1205L1_MB.txt.mb162 0.88MB Generic XYZ sounding format
EX1205L1_EX03192012_2012-196_0117_20120714_145241_EX1205L1_MB.txt.mb162 2.72MB Generic XYZ sounding format
EX1205L1_EX03192012_2012-196_0118_20120714_153222_EX1205L1_MB.txt.mb162 0.80MB Generic XYZ sounding format
EX1205L1_EX03192012_2012-196_0119_20120714_154414_EX1205L1_MB.txt.mb162 2.59MB Generic XYZ sounding format
EX1205L1_EX03192012_2012-196_0120_20120714_162135_EX1205L1_MB.txt.mb162 0.99MB Generic XYZ sounding format
EX1205L1_EX03192012_2012-196_0121_20120714_163512_EX1205L1_MB.txt.mb162 2.70MB Generic XYZ sounding format
EX1205L1_EX03192012_2012-196_0122_20120714_171429_EX1205L1_MB.txt.mb162 0.88MB Generic XYZ sounding format
EX1205L1_EX03192012_2012-196_0123_20120714_172731_EX1205L1_MB.txt.mb162 2.64MB Generic XYZ sounding format
EX1205L1_EX03192012_2012-196_0124_20120714_180541_EX1205L1_MB.txt.mb162 0.96MB Generic XYZ sounding format
EX1205L1_EX03192012_2012-196_0125_20120714_181858_EX1205L1_MB.txt.mb162 1.63MB Generic XYZ sounding format
EX1205L1_EX03192012_2012-196_0126_20120714_184234_EX1205L1_MB.txt.mb162 0.97MB Generic XYZ sounding format
EX1205L1_EX03192012_2012-196_0127_20120714_185641_EX1205L1_MB.txt.mb162 5.80MB Generic XYZ sounding format
EX1205L1_EX03192012_2012-196_0128_20120714_202032_EX1205L1_MB.txt.mb162 8.19MB Generic XYZ sounding format
EX1205L1_EX03192012_2012-196_0129_20120714_222035_EX1205L1_MB.txt.mb162 1.39MB Generic XYZ sounding format
EX1205L1_EX03192012_2012-197_0131_20120715_134924_EX1205L1_MB.txt.mb162 89.0KB Generic XYZ sounding format
EX1205L1_EX03192012_2012-197_0134_20120715_140357_EX1205L1_MB.txt.mb162 6.32MB Generic XYZ sounding format
EX1205L1_EX03192012_2012-197_0135_20120715_153440_EX1205L1_MB.txt.mb162 7.42MB Generic XYZ sounding format
EX1205L1_EX03192012_2012-197_0136_20120715_171933_EX1205L1_MB.txt.mb162 0.80MB Generic XYZ sounding format
EX1205L1_EX03192012_2012-197_0137_20120715_173132_EX1205L1_MB.txt.mb162 4.63MB Generic XYZ sounding format
EX1205L1_EX03192012_2012-197_0138_20120715_184303_EX1205L1_MB.txt.mb162 0.99MB Generic XYZ sounding format
EX1205L1_EX03192012_2012-197_0139_20120715_185838_EX1205L1_MB.txt.mb162 4.08MB Generic XYZ sounding format
EX1205L1_EX03192012_2012-197_0140_20120715_200208_EX1205L1_MB.txt.mb162 1.03MB Generic XYZ sounding format
EX1205L1_EX03192012_2012-197_0141_20120715_201745_EX1205L1_MB.txt.mb162 2.29MB Generic XYZ sounding format
EX1205L1_EX03192012_2012-197_0142_20120715_205413_EX1205L1_MB.txt.mb162 0.63MB Generic XYZ sounding format
EX1205L1_EX03192012_2012-197_0143_20120715_210412_EX1205L1_MB.txt.mb162 1.27MB Generic XYZ sounding format
EX1205L1_EX03192012_2012-197_0144_20120715_212408_EX1205L1_MB.txt.mb162 1.30MB Generic XYZ sounding format
EX1205L1_EX03192012_2012-198_0145_20120716_124446_EX1205L1_MB.txt.mb162 1.63MB Generic XYZ sounding format
EX1205L1_EX03192012_2012-198_0146_20120716_131210_EX1205L1_MB.txt.mb162 2.01MB Generic XYZ sounding format
EX1205L1_EX03192012_2012-198_0147_20120716_134906_EX1205L1_MB.txt.mb162 0.72MB Generic XYZ sounding format
EX1205L1_EX03192012_2012-198_0148_20120716_140128_EX1205L1_MB.txt.mb162 2.29MB Generic XYZ sounding format
EX1205L1_EX03192012_2012-198_0149_20120716_144139_EX1205L1_MB.txt.mb162 74.0KB Generic XYZ sounding format
EX1205L1_EX03192012_2012-198_0150_20120716_144307_EX1205L1_MB.txt.mb162 1.35MB Generic XYZ sounding format
EX1205L1_EX03192012_2012-198_0151_20120716_150809_EX1205L1_MB.txt.mb162 1.04MB Generic XYZ sounding format
EX1205L1_EX03192012_2012-198_0152_20120716_152507_EX1205L1_MB.txt.mb162 2.25MB Generic XYZ sounding format
EX1205L1_EX03192012_2012-198_0153_20120716_160348_EX1205L1_MB.txt.mb162 0.69MB Generic XYZ sounding format
EX1205L1_EX03192012_2012-198_0154_20120716_161530_EX1205L1_MB.txt.mb162 5.76MB Generic XYZ sounding format
EX1205L1_EX03192012_2012-198_0155_20120716_175601_EX1205L1_MB.txt.mb162 4.70MB Generic XYZ sounding format
EX1205L1_EX03192012_2012-198_0156_20120716_191138_EX1205L1_MB.txt.mb162 2.88MB Generic XYZ sounding format
EX1205L1_EX03192012_2012-198_0157_20120716_195415_EX1205L1_MB.txt.mb162 4.44MB Generic XYZ sounding format
EX1205L1_EX03192012_2012-198_0158_20120716_210522_EX1205L1_MB.txt.mb162 3.20MB Generic XYZ sounding format
EX1205L1_EX03192012_2012-199_0159_20120717_125741_EX1205L1_MB.txt.mb162 2.26MB Generic XYZ sounding format
EX1205L1_EX03192012_2012-199_0160_20120717_133212_EX1205L1_MB.txt.mb162 1.97MB Generic XYZ sounding format
EX1205L1_EX03192012_2012-199_0161_20120717_140454_EX1205L1_MB.txt.mb162 0.83MB Generic XYZ sounding format
EX1205L1_EX03192012_2012-199_0162_20120717_141857_EX1205L1_MB.txt.mb162 3.51MB Generic XYZ sounding format
EX1205L1_EX03192012_2012-199_0163_20120717_152143_EX1205L1_MB.txt.mb162 1.38MB Generic XYZ sounding format
EX1205L1_EX03192012_2012-199_0164_20120717_154644_EX1205L1_MB.txt.mb162 3.09MB Generic XYZ sounding format
EX1205L1_EX03192012_2012-199_0165_20120717_164827_EX1205L1_MB.txt.mb162 1.58MB Generic XYZ sounding format
EX1205L1_EX03192012_2012-199_0166_20120717_171630_EX1205L1_MB.txt.mb162 2.95MB Generic XYZ sounding format
EX1205L1_EX03192012_2012-199_0167_20120717_181801_EX1205L1_MB.txt.mb162 1.35MB Generic XYZ sounding format
EX1205L1_EX03192012_2012-199_0168_20120717_184431_EX1205L1_MB.txt.mb162 3.45MB Generic XYZ sounding format
EX1205L1_EX03192012_2012-199_0169_20120717_194605_EX1205L1_MB.txt.mb162 1.40MB Generic XYZ sounding format
EX1205L1_EX03192012_2012-199_0170_20120717_200913_EX1205L1_MB.txt.mb162 3.42MB Generic XYZ sounding format
EX1205L1_EX03192012_2012-199_0171_20120717_210607_EX1205L1_MB.txt.mb162 2.12MB Generic XYZ sounding format
EX1205L1_EX03192012_2012-199_0172_20120717_214224_EX1205L1_MB.txt.mb162 1.33MB Generic XYZ sounding format
EX1205L1_EX03192012_2012-200_0173_20120718_134356_EX1205L1_MB.txt.mb162 1.38MB Generic XYZ sounding format
EX1205L1_EX03192012_2012-200_0174_20120718_140429_EX1205L1_MB.txt.mb162 8.74MB Generic XYZ sounding format
EX1205L1_EX03192012_2012-200_0175_20120718_160432_EX1205L1_MB.txt.mb162 7.16MB Generic XYZ sounding format
EX1205L1_EX03192012_2012-200_0176_20120718_171134_EX1205L1_MB.txt.mb162 14.50MB Generic XYZ sounding format
EX1205L1_EX03192012_2012-200_0177_20120718_190404_EX1205L1_MB.txt.mb162 11.60MB Generic XYZ sounding format
EX1205L1_EX03192012_2012-200_0178_20120718_202710_EX1205L1_MB.txt.mb162 9.98MB Generic XYZ sounding format
EX1205L1_EX03192012_2012-200_0179_20120718_222715_EX1205L1_MB.txt.mb162 4.40MB Generic XYZ sounding format
EX1205L1_EX03192012_2012-201_0180_20120719_170513_EX1205L1_MB.txt.mb162 1.70MB Generic XYZ sounding format
EX1205L1_EX03192012_2012-201_0181_20120719_174557_EX1205L1_MB.txt.mb162 3.35MB Generic XYZ sounding format
EX1205L1_EX03192012_2012-201_0182_20120719_184052_EX1205L1_MB.txt.mb162 1.65MB Generic XYZ sounding format
EX1205L1_EX03192012_2012-201_0183_20120719_190543_EX1205L1_MB.txt.mb162 2.81MB Generic XYZ sounding format
EX1205L1_EX03192012_2012-201_0184_20120719_195141_EX1205L1_MB.txt.mb162 8.9KB Generic XYZ sounding format
EX1205L1_EX03192012_2012-201_0185_20120719_195149_EX1205L1_MB.txt.mb162 0.99MB Generic XYZ sounding format
EX1205L1_EX03192012_2012-201_0186_20120719_201427_EX1205L1_MB.txt.mb162 4.39MB Generic XYZ sounding format
EX1205L1_EX03192012_2012-201_0187_20120719_213209_EX1205L1_MB.txt.mb162 11.39MB Generic XYZ sounding format
EX1205L1_EX03192012_2012-201_0188_20120719_233207_EX1205L1_MB.txt.mb162 3.51MB Generic XYZ sounding format
EX1205L1_EX03192012_2012-202_0189_20120720_000009_EX1205L1_MB.txt.mb162 1.46MB Generic XYZ sounding format
EX1205L1_EX03192012_2012-202_0190_20120720_001350_EX1205L1_MB.txt.mb162 15.77MB Generic XYZ sounding format
EX1205L1_EX03192012_2012-202_0191_20120720_021352_EX1205L1_MB.txt.mb162 15.04MB Generic XYZ sounding format
EX1205L1_EX03192012_2012-202_0192_20120720_041350_EX1205L1_MB.txt.mb162 14.06MB Generic XYZ sounding format
EX1205L1_EX03192012_2012-202_0193_20120720_061352_EX1205L1_MB.txt.mb162 3.58MB Generic XYZ sounding format
EX1205L1_EX03192012_2012-202_0194_20120720_064458_EX1205L1_MB.txt.mb162 1.36MB Generic XYZ sounding format
EX1205L1_EX03192012_2012-202_0195_20120720_065707_EX1205L1_MB.txt.mb162 14.02MB Generic XYZ sounding format
EX1205L1_EX03192012_2012-202_0196_20120720_085709_EX1205L1_MB.txt.mb162 14.87MB Generic XYZ sounding format
EX1205L1_EX03192012_2012-202_0197_20120720_105708_EX1205L1_MB.txt.mb162 11.16MB Generic XYZ sounding format
EX1205L1_EX03192012_2012-202_0198_20120720_122812_EX1205L1_MB.txt.mb162 1.20MB Generic XYZ sounding format
EX1205L1_EX03192012_2012-202_0199_20120720_124723_EX1205L1_MB.txt.mb162 3.36MB Generic XYZ sounding format
EX1205L1_EX03192012_2012-202_0200_20120720_131235_EX1205L1_MB.txt.mb162 1.11MB Generic XYZ sounding format
EX1205L1_EX03192012_2012-202_0201_20120720_131852_EX1205L1_MB.txt.mb162 14.41MB Generic XYZ sounding format
EX1205L1_EX03192012_2012-202_0202_20120720_151855_EX1205L1_MB.txt.mb162 373.7KB Generic XYZ sounding format
EX1205L1_EX03192012_2012-202_0203_20120720_152242_EX1205L1_MB.txt.mb162 2.65MB Generic XYZ sounding format
EX1205L1_EX03192012_2012-202_0204_20120720_161808_EX1205L1_MB.txt.mb162 0.75MB Generic XYZ sounding format
EX1205L1_EX03192012_2012-202_0205_20120720_163835_EX1205L1_MB.txt.mb162 0.57MB Generic XYZ sounding format
EX1205L1_EX03192012_2012-202_0206_20120720_165135_EX1205L1_MB.txt.mb162 1.09MB Generic XYZ sounding format
EX1205L1_EX03192012_2012-202_0207_20120720_172101_EX1205L1_MB.txt.mb162 0.58MB Generic XYZ sounding format
EX1205L1_EX03192012_2012-203_0208_20120721_161413_EX1205L1_MB.txt.mb162 5.81MB Generic XYZ sounding format
EX1205L1_EX03192012_2012-203_0209_20120721_172052_EX1205L1_MB.txt.mb162 463.9KB Generic XYZ sounding format
EX1205L1_EX03192012_2012-203_0210_20120721_172738_EX1205L1_MB.txt.mb162 4.68MB Generic XYZ sounding format
EX1205L1_EX03192012_2012-203_0211_20120721_183941_EX1205L1_MB.txt.mb162 438.6KB Generic XYZ sounding format
EX1205L1_EX03192012_2012-203_0212_20120721_184606_EX1205L1_MB.txt.mb162 3.47MB Generic XYZ sounding format
EX1205L1_EX03192012_2012-203_0213_20120721_193751_EX1205L1_MB.txt.mb162 2.88MB Generic XYZ sounding format
EX1205L1_EX03192012_2012-203_0214_20120721_201822_EX1205L1_MB.txt.mb162 176.0KB Generic XYZ sounding format
EX1205L1_EX03192012_2012-203_0215_20120721_202044_EX1205L1_MB.txt.mb162 1.66MB Generic XYZ sounding format
EX1205L1_EX03192012_2012-203_0216_20120721_204335_EX1205L1_MB.txt.mb162 2.65MB Generic XYZ sounding format
EX1205L1_EX03192012_2012-203_0217_20120721_212057_EX1205L1_MB.txt.mb162 1.44MB Generic XYZ sounding format
EX1205L1_EX03192012_2012-203_0218_20120721_214242_EX1205L1_MB.txt.mb162 344.7KB Generic XYZ sounding format
EX1205L1_EX03192012_2012-203_0219_20120721_214810_EX1205L1_MB.txt.mb162 4.49MB Generic XYZ sounding format
EX1205L1_EX03192012_2012-203_0220_20120721_230507_EX1205L1_MB.txt.mb162 463.5KB Generic XYZ sounding format
EX1205L1_EX03192012_2012-203_0221_20120721_231256_EX1205L1_MB.txt.mb162 2.78MB Generic XYZ sounding format
EX1205L1_EX03192012_2012-204_0222_20120722_125954_EX1205L1_MB.txt.mb162 3.63MB Generic XYZ sounding format
EX1205L1_EX03192012_2012-204_0223_20120722_135848_EX1205L1_MB.txt.mb162 6.52MB Generic XYZ sounding format
EX1205L1_EX03192012_2012-204_0224_20120722_154410_EX1205L1_MB.txt.mb162 3.00MB Generic XYZ sounding format
EX1205L1_EX03192012_2012-204_0225_20120722_193905_EX1205L1_MB.txt.mb162 0.94MB Generic XYZ sounding format
EX1205L1_EX03192012_2012-204_0226_20120722_200452_EX1205L1_MB.txt.mb162 1.26MB Generic XYZ sounding format
EX1205L1_EX03192012_2012-204_0227_20120722_204327_EX1205L1_MB.txt.mb162 0.69MB Generic XYZ sounding format
EX1205L1_EX03192012_2012-204_0228_20120722_210550_EX1205L1_MB.txt.mb162 5.92MB Generic XYZ sounding format
EX1205L1_EX03192012_2012-204_0229_20120722_230553_EX1205L1_MB.txt.mb162 391.7KB Generic XYZ sounding format
EX1205L1_EX03192012_2012-204_0230_20120722_231153_EX1205L1_MB.txt.mb162 0.78MB Generic XYZ sounding format
EX1205L1_EX03192012_2012-204_0231_20120722_232403_EX1205L1_MB.txt.mb162 3.70MB Generic XYZ sounding format
EX1205L1_EX03192012_2012-205_0232_20120723_190851_EX1205L1_MB.txt.mb162 1.87MB Generic XYZ sounding format
EX1205L1_EX03192012_2012-205_0233_20120723_193942_EX1205L1_MB.txt.mb162 8.81MB Generic XYZ sounding format
EX1205L1_EX03192012_2012-205_0234_20120723_213943_EX1205L1_MB.txt.mb162 0.50MB Generic XYZ sounding format
EX1205L1_EX03192012_2012-205_0236_20120723_220544_EX1205L1_MB.txt.mb162 14.07MB Generic XYZ sounding format
EX1205L1_EX03192012_2012-206_0237_20120724_000256_EX1205L1_MB.txt.mb162 16.16MB Generic XYZ sounding format
EX1205L1_EX03192012_2012-206_0238_20120724_020256_EX1205L1_MB.txt.mb162 9.48MB Generic XYZ sounding format
EX1205L1_EX03192012_2012-206_0239_20120724_031336_EX1205L1_MB.txt.mb162 31.78MB Generic XYZ sounding format
EX1205L1_EX03192012_2012-206_0240_20120724_051336_EX1205L1_MB.txt.mb162 173.53MB Generic XYZ sounding format
EX1205L1_EX03192012_2012-206_0241_20120724_071336_EX1205L1_MB.txt.mb162 143.68MB Generic XYZ sounding format
EX1205L1_EX03192012_2012-206_0242_20120724_084818_EX1205L1_MB.txt.mb162 212.78MB Generic XYZ sounding format

Products: 50

Files File Size Description
EX1205L1_EK60_0712_T1410_points_BlakeRidgeDiapir_WGS84.sd.gz 8.6KB Fledermaus surface
EX1205L1_EK60_0712_T1502_points_BlakeRidgeDiapir_WGS84.sd.gz 9.0KB Fledermaus surface
EX1205L1_EK60_0713_T1440_points_BlakeRidgeDiapir_WGS84.sd.gz 13.8KB Fledermaus surface
EX1205L1_MB_FNL_800M_ISOBATH_WGS84_30M.kmz.gz 1.79MB Compressed Keyhole Markup Language file
EX1205L1_MB_FNL_800M_ISOBATH_WGS84_30M.sd.gz 5.68MB Fledermaus surface
EX1205L1_MB_FNL_800M_ISOBATH_WGS84_30M.tif.gz 1.79MB GeoTIFF survey image
EX1205L1_MB_FNL_800M_ISOBATH_WGS84_30M.xyz.gz 6.29MB xyz grid file provided by the originator
EX1205L1_MB_FNL_ALL_WGS84_50M.kmz.gz 0.79MB Compressed Keyhole Markup Language file
EX1205L1_MB_FNL_ALL_WGS84_50M.sd.gz 18.59MB Fledermaus surface
EX1205L1_MB_FNL_ALL_WGS84_50M.tif.gz 0.79MB GeoTIFF survey image
EX1205L1_MB_FNL_ALL_WGS84_50M.xyz.gz 26.85MB xyz grid file provided by the originator
EX1205L1_MB_FNL_CapeFearDiapir_BlakeRidgeDiapir_WGS84_30M.kmz.gz 11.86MB Compressed Keyhole Markup Language file
EX1205L1_MB_FNL_CapeFearDiapir_BlakeRidgeDiapir_WGS84_30M.sd.gz 14.29MB Fledermaus surface
EX1205L1_MB_FNL_CapeFearDiapir_BlakeRidgeDiapir_WGS84_30M.tif.gz 11.84MB GeoTIFF survey image
EX1205L1_MB_FNL_CapeFearDiapir_BlakeRidgeDiapir_WGS84_30M.xyz.gz 23.12MB xyz grid file provided by the originator
EX1205L1_MB_FNL_HatterasTransverseCanyon_WGS84_30M.kmz.gz 10.23MB Compressed Keyhole Markup Language file
EX1205L1_MB_FNL_HatterasTransverseCanyon_WGS84_30M.sd.gz 7.67MB Fledermaus surface
EX1205L1_MB_FNL_HatterasTransverseCanyon_WGS84_30M.tif.gz 10.21MB GeoTIFF survey image
EX1205L1_MB_FNL_HatterasTransverseCanyon_WGS84_30M.xyz.gz 9.93MB xyz grid file provided by the originator
EX1205L1_MB_WaterColumnDataPoints_Line0061_BlakeRidgeDiapir_WGS84.sd.gz 42.1KB Fledermaus surface
EX1205L1_MB_WaterColumnDataPoints_Line0063_BlakeRidgeDiapir_WGS84.sd.gz 8.4KB Fledermaus surface
EX1205L1_MB_WaterColumnDataPoints_Line0066_BlakeRidgeDiapir_WGS84.sd.gz 7.3KB Fledermaus surface
EX1205L1_MB_WaterColumnDataPoints_Line0068_1_BlakeRidgeDiapir_WGS84.sd.gz 89.7KB Fledermaus surface
EX1205L1_MB_WaterColumnDataPoints_Line0068_2_BlakeRidgeDiapir_WGS84.sd.gz 9.3KB Fledermaus surface
EX1205L1_MB_WaterColumnDataPoints_Line0068_3_BlakeRidgeDiapir_WGS84.sd.gz 11.4KB Fledermaus surface
EX1205L1_MB_WaterColumnDataPoints_Line0070_BlakeRidgeDiapir_WGS84.sd.gz 2.6KB Fledermaus surface
EX1205L1_MB_WaterColumnDataPoints_Line0098_BlakeRidgeDiapir_WGS84.sd.gz 18.7KB Fledermaus surface
EX1205L1_MB_WaterColumnDataPoints_Line0100_1_BlakeRidgeDiapir_WGS84.sd.gz 3.8KB Fledermaus surface
EX1205L1_MB_WaterColumnDataPoints_Line0100_BlakeRidgeDiapir_WGS84.sd.gz 30.7KB Fledermaus surface
EX1205L1_MB_WaterColumnDataPoints_Line0104_1_BlakeRidgeDiapir_WGS84.sd.gz 366.5KB Fledermaus surface
EX1205L1_MB_WaterColumnDataPoints_Line0104_2_BlakeRidgeDiapir_WGS84.sd.gz 4.5KB Fledermaus surface
EX1205L1_MB_WaterColumnDataPoints_Line0111_BlakeRidgeDiapir_WGS84.sd.gz 4.5KB Fledermaus surface
EX1205L1_MB_WaterColumnDataPoints_Line0113_1_BlakeRidgeDiapir_WGS84.sd.gz 17.7KB Fledermaus surface
EX1205L1_MB_WaterColumnDataPoints_Line0113_2_BlakeRidgeDiapir_WGS84.sd.gz 21.2KB Fledermaus surface
EX1205L1_MB_WaterColumnDataPoints_Line0117_BlakeRidgeDiapir_WGS84.sd.gz 6.4KB Fledermaus surface
EX1205L1_MB_WaterColumnDataPoints_Line0121_BlakeRidgeDiapir_WGS84.sd.gz 3.2KB Fledermaus surface
EX1205L1_MB_WaterColumnDataPoints_Line0129_BlakeRidgeDiapir_WGS84.sd.gz 8.1KB Fledermaus surface
EX1205L1_MB_WaterColumnDataPoints_Line0143_CapeFearDiapir_WGS84.sd.gz 234.3KB Fledermaus surface
EX1205L1_MB_WaterColumnDataPoints_Line0158_BlakeRidgeDiapir_WGS84.sd.gz 5.3KB Fledermaus surface
EX1205L1_MB_WaterColumnDataPoints_Line0173_1_BlakeRidgeDiapir_WGS84.sd.gz 13.4KB Fledermaus surface
EX1205L1_MB_WaterColumnDataPoints_Line0173_2_BlakeRidgeDiapir_WGS84.sd.gz 4.7KB Fledermaus surface
EX1205L1_MB_WaterColumnDataPoints_Line0173_3_BlakeRidgeDiapir_WGS84.sd.gz 25.0KB Fledermaus surface
EX1205L1_MB_WaterColumnDataPoints_Line0204_1_BlakeRidgeDiapir_WGS84.sd.gz 37.1KB Fledermaus surface
EX1205L1_MB_WaterColumnDataPoints_Line0204_2_BlakeRidgeDiapir_WGS84.sd.gz 8.3KB Fledermaus surface
EX1205L1_MB_WaterColumnDataPoints_Line0204_3_BlakeRidgeDiapir_WGS84.sd.gz 14.4KB Fledermaus surface
EX1205L1_MB_WaterColumnDataPoints_Line0204_4_BlakeRidgeDiapir_WGS84.sd.gz 15.0KB Fledermaus surface
EX1205L1_MB_WaterColumnDataPoints_Line0204_5_BlakeRidgeDiapir_WGS84.sd.gz 12.7KB Fledermaus surface
EX1205L1_MB_WaterColumnDataPoints_Line0206_1_BlakeRidgeDiapir_WGS84.sd.gz 22.4KB Fledermaus surface
EX1205L1_MB_WaterColumnDataPoints_Line0206_2_BlakeRidgeDiapir_WGS84.sd.gz 30.1KB Fledermaus surface
EX1205L1_MB_WaterColumnDataPoints_Line0206_3_BlakeRidgeDiapir_WGS84.sd.gz 21.4KB Fledermaus surface

Metadata Files: 8

Files File Size Description
EX1205L1_Multibeam.xml NCEI created ISO metadata
EX1205L1_COLLECTION_UNRESOLVED.xml 18.7KB XML metadata file
EX1205L1_Multibeam_COLLECTION_UNRESOLVED.xml 21.3KB XML metadata file
EX1205L1_Profile_COLLECTION_UNRESOLVED.xml 16.5KB XML metadata file
EX1205L1_ShipTrack_KML_UNRESOLVED.xml 17.0KB XML metadata file
EX1205L1_SubbottomProfiler_COLLECTION_UNRESOLVED.xml 21.0KB XML metadata file
v1_file_metadata.tar.gz 71.9KB File level metadata
v2_file_metadata.tar.gz 80.2KB File level metadata

Ancillary Files: 4

Files File Size Description
asvp.tar.gz 289.3KB Sound Speed Profiles (SSP or SVP)
ctd.tar.gz 36.03MB Conductivity, Temperature, Depth (CTD) data
do_not_process.tar.gz 57.95MB Data Not Processed
xbt.tar.gz 0.89MB Expendable Bathythermograph (XBT) data

Water Column Sonar Data

Water Column Sonar Data Available: WCSD Map Viewer